Edwards, CA

5:22 AM PST on December 11, 2016 (GMT -0800)
Edwards Air Force Base

Weather History for KEDW - February, 2013

Change the Weather History Date:

Sunday, February 10, 2013

  Actual Average Record
Temperature  
Mean Temperature 37 °F -  
Max Temperature 52 °F 57 °F 77 °F (2012)
Min Temperature 22 °F 32 °F 22 °F (2013)
Degree Days  
Heating Degree Days 28    
Moisture  
Dew Point 22 °F    
Average Humidity 57    
Maximum Humidity 99    
Minimum Humidity 24    
Precipitation  
Precipitation 0.00 in - - ()
Sea Level Pressure  
Sea Level Pressure 30.02 in    
Wind  
Wind Speed 6 mph (SW)    
Max Wind Speed 14 mph    
Max Gust Speed 20 mph    
Visibility 10 miles    
Events      
Averages and records for this station are not official NWS values.
T = Trace of Precipitation, MM = Missing Value Source: NWS Daily Summary

Daily Weather History Graph

Daily Weather History Graph

Search for Another Location

Airport or City:

Trip Planner

Search our weather history database for the weather conditions in past years. The results will help you decide how hot, cold, wet, or windy it might be!

Date:

Astronomy

Feb. 10, 2013 Rise Set
Actual Time 6:42 AM PST 5:29 PM PST
Civil Twilight 6:16 AM PST 5:55 PM PST
Nautical Twilight 5:46 AM PST 6:25 PM PST
Astronomical Twilight 5:16 AM PST 6:55 PM PST
Moon 6:37 AM PST (2/10) 6:21 PM PST (2/10)
Length of Visible Light 11h 39m
Length of Day
10h 47m
New Moon, 0% of the Moon is Illuminated
Feb 10
New Moon
Feb 17
First Quarter
Feb 25
Full
Mar 4
Last Quarter
Mar 11
New

Hourly Weather History & Observations

Time (PST) Temp. Windchill Dew Point Humidity Pressure Visibility Wind Dir Wind Speed Gust Speed Precip Events Conditions
12:58 AM 30.0 °F 21.7 °F 22.6 °F 74% 30.04 in 10.0 mi SW 9.2 mph - N/A   Clear
1:58 AM 29.8 °F 22.2 °F 23.7 °F 78% 30.03 in 10.0 mi SSW 8.1 mph - N/A   Clear
2:58 AM 27.3 °F 19.9 °F 24.8 °F 90% 30.04 in 10.0 mi South 6.9 mph - N/A   Clear
3:58 AM 28.0 °F - 27.0 °F 96% 30.03 in 10.0 mi South 1.2 mph - N/A   Clear
4:58 AM 25.5 °F - 25.3 °F 99% 30.03 in 10.0 mi Calm Calm - N/A   Clear
5:58 AM 22.3 °F 16.1 °F 18.0 °F 83% 30.05 in 10.0 mi North 4.6 mph - N/A   Clear
6:58 AM 24.6 °F 20.3 °F 20.5 °F 84% 30.05 in 10.0 mi North 3.5 mph - N/A   Clear
7:58 AM 27.1 °F - 21.7 °F 80% 30.06 in 10.0 mi NNE 2.3 mph - N/A   Clear
8:58 AM 31.5 °F - 22.6 °F 70% 30.08 in 50.0 mi Variable 1.2 mph - N/A   Partly Cloudy
9:58 AM 39.7 °F - 25.0 °F 56% 30.07 in 50.0 mi Variable 2.3 mph - N/A   Scattered Clouds
10:58 AM 43.5 °F 41.9 °F 23.5 °F 45% 30.07 in 60.0 mi Variable 3.5 mph - N/A   Partly Cloudy
11:58 AM 46.6 °F - 18.7 °F 33% 30.04 in 70.0 mi Variable 2.3 mph - N/A   Partly Cloudy
12:58 PM 48.7 °F - 18.9 °F 31% 30.00 in 70.0 mi Variable 5.8 mph - N/A   Partly Cloudy
1:58 PM 51.8 °F - 16.9 °F 25% 29.97 in 80.0 mi Variable 4.6 mph - N/A   Partly Cloudy
2:58 PM 52.2 °F - 15.6 °F 24% 29.96 in 90.0 mi WNW 4.6 mph - N/A   Partly Cloudy
3:58 PM 52.2 °F - 15.6 °F 24% 29.95 in 90.0 mi SW 2.3 mph - N/A   Partly Cloudy
4:58 PM 52.0 °F - 15.4 °F 24% 29.96 in 10.0 mi WSW 5.8 mph - N/A   Clear
5:58 PM 47.3 °F - 16.2 °F 29% 29.96 in 10.0 mi SW 13.8 mph 19.6 mph N/A   Clear
6:58 PM 45.0 °F 38.9 °F 23.7 °F 43% 29.98 in 10.0 mi WSW 12.7 mph - N/A   Clear
7:58 PM 42.4 °F 36.1 °F 23.5 °F 47% 30.00 in 10.0 mi West 11.5 mph - N/A   Clear
8:58 PM 39.9 °F 35.8 °F 24.8 °F 55% 30.03 in 10.0 mi SSW 5.8 mph - N/A   Clear
9:33 PM 39.2 °F 33.0 °F 24.8 °F 56% 30.00 in 10.0 mi SW 9.2 mph - N/A   Mostly Cloudy
9:58 PM 38.7 °F 34.3 °F 25.7 °F 60% 30.03 in 10.0 mi SW 5.8 mph - N/A   Overcast
10:58 PM 37.4 °F 32.8 °F 25.2 °F 61% 30.04 in 10.0 mi ESE 5.8 mph - N/A   Overcast
11:58 PM 37.9 °F - 28.0 °F 68% 30.05 in 10.0 mi WSW 2.3 mph - N/A   Mostly Cloudy